Temp
6 6 5 5 5 5 5 5 6 6 5 5 5 5 5 5 6 6 7 8 8 8 8 8 8 8 8 8 8 8 9 9 10 10 10 10 10 10 11 11 11 10 10 10 10 10 10 11 11 11 11 11 11 11 11 11 11 11 11 11 11 11 11 11 11 12 12 12 12 12 12 12 11 11 11 11 11 11 11 11 11 11 11 12 12
6 5 5 5 5 5 4 4 5 5 5 5 5 4 4 5 5 6 6 7 7 7 8 8 8 8 8 7 7 8 8 8 9 9 9 10 10 10 10 11 10 10 10 10 10 10 10 10 11 11 11 11 11 11 11 11 11 11 11 11 11 11 11 11 11 11 11 12 12 12 12 11 11 11 11 11 11 11 11 11 11 11 11 12 12
5 5 5 5 5 5 4 4 4 5 5 5 4 4 4 4 5 5 6 6 6 7 7 7 7 7 7 7 7 7 8 8 8 8 8 9 10 10 10 10 10 10 10 10 10 10 10 11 11 11 11 11 11 11 11 11 11 11 11 11 11 11 11 11 11 11 11 11 12 12 12 11 11 11 11 11 11 11 11 12 12 11 11 11 12
5 5 5 5 5 5 5 4 4 4 4 4 4 3 3 4 4 4 5 5 5 6 6 6 7 7 7 7 7 7 7 7 8 8 8 9 9 9 9 9 10 10 10 10 10 10 11 11 11 11 11 11 11 11 11 11 11 12 12 12 12 12 11 11 11 11 11 11 11 11 12 12 12 12 11 11 11 11 11 12 12 11 11 11 11
5 5 5 5 5 5 4 4 4 4 4 3 3 2 2 3 3 4 4 5 5 5 5 6 6 6 6 6 6 6 6 7 8 8 8 8 9 9 9 9 9 10 10 10 10 11 11 11 11 11 11 11 11 11 11 11 12 12 12 12 12 12 12 12 11 11 11 11 11 11 12 12 12 12 12 11 11 11 11 11 12 11 11 11 11
4 4 4 5 4 4 4 4 4 4 4 3 3 2 2 3 3 3 3 4 4 5 5 5 5 5 5 5 5 6 6 7 7 8 8 8 9 9 9 9 9 10 10 10 10 10 10 11 11 11 11 11 11 11 11 11 12 12 12 12 12 12 12 12 11 11 11 11 11 11 11 12 11 11 12 11 11 11 11 11 11 11 11 11 11
4 4 4 4 4 4 4 4 4 4 3 3 3 3 3 3 3 3 3 3 4 4 4 4 4 4 5 5 5 5 6 6 7 7 8 8 9 9 9 9 9 9 10 10 10 10 10 10 10 11 11 11 11 11 11 11 12 12 12 12 12 11 12 12 11 11 11 11 11 11 11 11 11 11 11 11 11 11 11 11 11 11 11 11 11
4 4 4 3 3 3 3 3 3 3 3 3 3 3 3 3 3 3 3 3 3 3 3 3 4 4 4 4 4 5 5 6 6 7 7 8 8 8 8 9 9 9 9 9 10 10 10 10 11 11 11 11 11 11 11 11 12 12 11 11 11 11 11 11 11 11 11 11 11 11 11 11 11 11 11 11 11 11 11 11 11 11 11 11 11
4 4 3 3 3 3 3 3 3 3 3 3 2 2 2 2 3 3 3 3 2 2 2 3 3 4 4 4 4 4 5 5 4 5 6 7 7 8 8 8 9 9 9 9 10 10 10 10 10 10 10 11 11 11 11 11 12 12 12 12 12 11 11 11 11 11 11 11 11 11 11 11 11 11 11 11 11 11 11 11 11 11 11 11 11
4 4 3 3 3 3 3 3 3 3 3 3 2 2 2 2 2 3 3 2 2 2 2 2 3 3 3 3 3 4 4 4 4 4 4 5 6 7 7 7 8 8 9 9 9 10 10 10 10 10 10 10 10 10 11 11 11 11 12 12 12 12 11 11 11 11 11 11 11 11 11 11 11 11 11 11 11 11 11 11 11 11 11 10 11
4 3 3 3 3 3 3 3 3 3 3 3 2 2 1 1 2 2 2 2 1 1 1 2 2 2 2 3 3 3 3 3 3 4 4 4 5 6 6 7 7 8 8 8 9 9 10 10 10 10 10 11 11 11 10 10 11 11 11 11 11 11 11 11 11 12 12 12 11 11 11 11 11 11 11 11 11 11 11 11 11 11 11 10 11
3 3 3 3 3 3 3 3 3 3 3 3 2 2 2 1 2 2 2 2 1 1 1 1 1 1 2 2 2 3 3 3 3 3 4 4 4 5 5 5 6 7 7 7 8 9 9 9 10 10 10 10 11 11 11 11 11 11 11 11 11 11 11 11 11 12 12 12 12 11 11 11 11 11 11 11 11 11 11 11 11 11 11 11 11
3 3 3 3 3 3 3 3 3 3 3 3 3 2 2 2 2 2 1 1 1 1 1 1 1 1 1 1 2 2 2 2 3 3 3 3 4 4 4 4 5 6 6 7 8 8 9 9 9 10 10 10 10 11 11 11 11 11 11 11 11 11 11 11 11 11 12 12 12 12 12 11 11 12 12 11 11 11 11 11 11 11 11 11 11
3 3 3 3 3 3 3 2 2 2 3 3 3 2 2 2 2 2 1 1 1 0 1 1 1 0 0 1 1 1 1 2 2 3 3 3 3 3 4 4 4 4 5 5 6 7 7 8 9 9 9 9 10 10 11 11 11 11 11 11 11 11 11 11 11 11 11 12 12 13 12 12 12 12 12 12 11 11 11 11 11 11 11 11 11
3 3 2 2 2 2 2 2 2 2 2 3 3 2 2 2 2 1 1 1 0 0 0 0 1 0 0 0 0 1 1 1 1 2 2 3 3 3 3 3 3 3 4 4 5 5 6 6 7 8 8 9 9 10 10 11 11 11 11 11 11 11 11 11 11 11 11 11 12 13 13 12 12 12 12 12 12 12 12 12 12 11 11 11 11
3 3 3 2 2 2 2 2 2 2 2 2 2 2 2 2 2 1 1 1 0 0 0 0 0 0 0 0 0 0 0 0 1 1 2 2 3 3 3 3 3 3 3 3 4 4 4 5 6 6 7 7 8 9 9 10 10 11 11 11 11 11 11 11 11 11 11 11 11 12 12 11 11 11 11 11 11 11 11 11 11 11 10 10 11
3 3 3 3 2 2 2 2 2 2 2 2 2 2 2 2 1 1 1 1 1 0 0 0 0 1 1 0 0 0 0 0 0 0 1 2 2 2 3 3 3 3 3 3 3 3 3 3 4 5 6 6 7 8 9 9 10 10 11 11 11 11 11 11 11 11 11 11 11 11 11 11 11 11 11 11 11 11 11 10 10 10 10 10 11
3 3 3 3 3 3 2 2 2 2 2 2 2 2 2 1 1 1 1 1 1 0 0 1 1 1 1 1 0 -0 -0 -0 -0 0 0 1 1 1 2 2 2 2 2 2 2 2 3 3 3 4 5 5 6 7 8 9 9 9 10 10 11 11 11 11 11 11 11 11 11 11 11 11 11 11 10 11 11 11 11 10 10 10 10 11 11
3 3 3 3 3 3 3 3 3 2 2 2 2 2 2 1 1 1 1 1 0 0 0 1 1 1 1 1 1 0 -0 -0 -0 -0 0 0 0 1 1 1 1 2 2 2 2 2 2 2 3 3 4 4 5 6 6 7 8 9 9 9 10 11 11 11 10 10 10 10 10 10 10 10 10 10 10 10 10 11 11 11 11 11 11 11 11
3 3 3 3 3 3 3 3 3 3 2 2 2 2 2 1 1 1 1 1 0 0 0 0 1 0 0 0 0 0 -0 -0 -0 -0 -0 0 0 0 1 1 1 1 1 1 1 2 2 2 2 2 3 3 4 5 5 6 7 8 9 9 9 10 10 10 10 10 10 10 10 10 10 10 10 10 10 10 10 10 10 11 11 11 11 11 11
4 3 3 3 3 3 3 3 3 3 2 2 2 2 2 1 1 1 1 1 1 0 0 0 0 0 0 0 0 -0 -0 -1 -0 -0 -0 -0 -0 -0 0 0 0 0 0 -0 0 0 1 1 1 1 2 2 3 4 5 6 6 7 8 9 9 9 9 9 9 9 9 9 10 10 10 10 10 10 10 10 10 10 10 11 11 11 11 11 12
4 3 3 3 3 3 3 3 3 3 2 2 2 2 2 1 1 1 1 1 1 0 0 -0 -0 0 0 0 0 -0 -0 -1 -1 -0 -0 -0 -0 -0 -0 -0 -0 -0 -0 -0 -1 -1 -1 -0 -0 0 1 1 2 3 4 5 6 7 8 8 9 9 9 9 9 9 9 9 9 9 9 10 10 10 9 10 10 10 10 10 10 10 11 11 12
4 4 3 3 3 3 3 3 3 3 2 2 2 2 2 1 1 1 1 1 1 1 0 -0 -0 -0 0 0 -0 -0 -0 -1 -1 -1 -1 -1 -1 -1 -1 -0 -0 -0 -1 -1 -1 -1 -1 -1 -1 -0 -0 1 1 2 3 4 5 6 7 8 8 9 9 9 9 9 9 9 8 9 9 9 9 9 9 10 10 10 10 10 10 10 11 11 11
4 4 4 3 3 3 3 3 3 3 2 2 2 2 2 1 1 1 1 1 1 1 0 -0 -1 -1 -0 -0 -0 -1 -1 -1 -1 -1 -1 -1 -1 -1 -1 -1 -1 -1 -1 -1 -1 -1 -1 -1 -1 -1 -0 0 1 1 2 3 4 5 5 6 7 8 8 8 8 8 8 8 8 8 8 8 9 9 9 9 9 9 9 10 10 10 11 11 11
4 4 4 3 3 3 3 3 3 2 2 2 2 2 2 1 1 1 1 1 1 0 0 -0 -1 -1 -1 -1 -1 -1 -1 -1 -1 -1 -1 -2 -1 -1 -1 -1 -1 -1 -1 -1 -1 -1 -1 -1 -1 -1 -0 -0 0 1 1 2 2 3 4 4 5 6 7 7 7 7 7 8 8 7 8 8 8 8 8 9 8 8 9 9 9 10 10 10 10
4 3 3 3 3 3 3 3 3 2 2 2 2 2 2 1 1 1 1 1 1 0 -0 -0 -1 -1 -1 -1 -1 -1 -1 -2 -2 -2 -2 -2 -2 -1 -1 -1 -1 -1 -1 -1 -1 -1 -1 -1 -1 -1 -0 -0 0 0 1 1 2 2 3 3 4 4 4 5 6 6 6 6 7 7 7 7 7 7 7 8 8 8 8 8 8 8 9 9 9
3 3 3 3 3 3 3 3 3 2 2 2 2 2 2 1 1 1 1 1 0 0 -0 -1 -1 -1 -1 -1 -1 -1 -1 -2 -3 -2 -2 -2 -2 -2 -2 -1 -1 -1 -1 -1 -1 -1 -1 -1 -1 -1 -0 -0 0 0 0 0 1 1 2 2 2 3 3 3 3 4 4 5 5 5 5 5 5 5 6 6 6 7 6 7 7 7 8 8 9
3 3 3 3 3 3 3 3 3 2 2 2 2 2 2 1 1 1 1 1 0 0 -0 -1 -1 -1 -1 -1 -1 -1 -1 -2 -3 -3 -2 -2 -2 -2 -2 -2 -2 -2 -2 -2 -1 -1 -1 -1 -1 -0 -0 -0 0 0 -0 -0 -0 -0 0 1 1 1 1 1 2 2 2 2 3 3 4 4 4 4 4 5 5 5 5 5 6 6 6 7 7
3 3 3 3 3 3 3 3 3 2 2 2 2 2 2 1 1 1 1 0 0 0 -0 -1 -1 -1 -1 -1 -1 -2 -2 -2 -3 -3 -2 -2 -2 -2 -2 -2 -2 -2 -2 -2 -2 -1 -1 -1 -1 -1 -1 -1 -1 -1 -1 -1 -1 -1 -1 -0 0 0 1 1 1 1 1 1 1 2 2 2 2 3 3 4 4 4 4 5 5 5 5 6 6
3 3 3 3 3 3 3 3 3 2 2 2 2 2 1 1 1 1 1 0 0 0 -0 -1 -1 -1 -1 -1 -2 -2 -2 -3 -3 -3 -3 -2 -2 -2 -2 -2 -2 -2 -3 -3 -2 -2 -2 -2 -2 -2 -2 -2 -2 -2 -2 -2 -1 -1 -1 -1 -1 -0 -0 0 0 0 0 1 1 1 1 1 1 2 2 2 2 3 3 4 4 4 4 5 5
3 3 3 3 3 3 3 3 2 2 2 2 2 2 1 1 1 1 1 0 0 -0 -0 -1 -1 -1 -1 -1 -1 -2 -2 -2 -2 -2 -3 -2 -2 -2 -2 -2 -2 -2 -3 -3 -3 -3 -2 -2 -3 -3 -3 -3 -3 -3 -3 -3 -2 -2 -2 -2 -1 -1 -1 -1 -1 -0 -0 0 0 0 0 0 0 1 1 1 1 1 2 2 2 3 3 3 3
3 4 3 3 3 3 3 3 2 2 2 2 2 2 1 1 1 1 1 0 0 -0 -0 -1 -1 -1 -1 -1 -1 -1 -2 -2 -2 -2 -2 -3 -3 -3 -2 -3 -3 -3 -3 -3 -3 -3 -3 -3 -3 -3 -3 -3 -3 -3 -3 -3 -3 -3 -3 -2 -2 -2 -2 -1 -1 -1 -0 -0 -0 -0 -0 -0 -0 -0 -0 -0 0 0 1 1 1 2 1 1 1
3 3 3 3 3 3 3 3 3 3 2 2 2 2 2 1 1 1 1 1 0 0 -0 -0 -1 -1 -1 -1 -1 -1 -2 -2 -2 -2 -2 -3 -3 -3 -3 -3 -3 -3 -3 -3 -3 -3 -3 -4 -4 -4 -4 -4 -4 -4 -4 -3 -3 -3 -3 -3 -3 -3 -3 -2 -2 -1 -1 -1 -1 -1 -1 -1 -1 -0 -0 -0 0 0 0 1 1 1 1 1 1
3 3 3 3 3 3 3 3 3 3 2 2 2 2 1 1 1 1 1 1 0 0 0 -0 -0 -1 -1 -1 -1 -1 -2 -2 -2 -2 -2 -3 -3 -3 -3 -3 -3 -3 -3 -3 -3 -3 -4 -4 -4 -4 -4 -4 -4 -4 -4 -3 -3 -3 -3 -3 -3 -3 -3 -3 -2 -2 -2 -2 -1 -1 -1 -1 -1 -1 -0 -0 -0 -0 -0 -0 -0 0 0 0 0
3 3 3 3 3 3 3 3 3 2 2 2 2 2 1 1 1 1 1 1 0 0 0 -0 -0 -0 -1 -1 -1 -1 -2 -2 -2 -2 -2 -3 -3 -3 -3 -3 -3 -3 -3 -3 -3 -3 -3 -4 -4 -4 -4 -4 -4 -4 -4 -4 -3 -3 -3 -3 -3 -3 -3 -3 -3 -3 -2 -2 -2 -2 -2 -2 -1 -1 -1 -1 -1 -1 -1 -1 -1 -1 -1 -1 -1
3 3 3 3 3 3 3 3 2 2 2 2 2 2 2 1 1 1 1 1 1 1 0 -0 -0 -0 -1 -1 -1 -1 -1 -2 -2 -2 -2 -2 -3 -3 -4 -3 -3 -3 -3 -3 -3 -3 -3 -3 -3 -3 -3 -4 -4 -4 -4 -4 -4 -4 -3 -3 -3 -3 -3 -3 -3 -3 -3 -3 -2 -2 -2 -2 -2 -2 -2 -1 -1 -1 -1 -1 -1 -1 -1 -1 -1
3 3 3 3 3 3 3 3 3 2 2 2 2 2 2 2 1 1 1 1 1 1 0 0 -0 -0 -0 -1 -1 -1 -1 -2 -2 -2 -2 -3 -3 -3 -3 -3 -3 -3 -3 -3 -3 -3 -3 -3 -3 -3 -3 -3 -3 -3 -4 -4 -4 -4 -4 -3 -3 -3 -3 -3 -3 -3 -3 -3 -3 -3 -2 -2 -2 -2 -2 -2 -2 -2 -1 -1 -1 -1 -1 -1 -1
3 3 3 3 3 3 3 3 3 3 3 2 2 2 2 2 1 1 1 1 1 1 1 0 -0 -0 -0 -0 -1 -1 -1 -2 -2 -2 -2 -3 -3 -3 -3 -3 -3 -4 -4 -4 -4 -4 -3 -3 -3 -3 -3 -3 -3 -3 -4 -4 -4 -4 -4 -4 -4 -4 -4 -3 -3 -3 -3 -3 -3 -3 -3 -3 -2 -2 -2 -2 -2 -2 -2 -2 -2 -2 -1 -1 -1
3 3 3 3 3 3 3 3 3 3 3 2 2 2 2 2 2 1 1 1 1 1 1 0 0 -0 -0 -0 -1 -1 -1 -1 -2 -2 -2 -3 -3 -3 -3 -3 -3 -3 -3 -3 -3 -3 -3 -3 -3 -3 -3 -3 -3 -3 -3 -3 -4 -4 -4 -4 -4 -4 -4 -3 -3 -3 -3 -3 -3 -3 -3 -3 -3 -3 -2 -3 -3 -3 -2 -2 -2 -2 -2 -1 -1
3 3 3 3 3 3 3 3 3 3 3 2 2 2 2 2 2 1 1 1 1 1 1 0 0 0 -0 -0 -0 -1 -1 -1 -2 -2 -2 -2 -3 -3 -3 -3 -3 -3 -4 -4 -3 -3 -3 -3 -3 -3 -3 -3 -3 -3 -3 -3 -3 -3 -3 -4 -4 -4 -3 -3 -3 -3 -3 -3 -3 -3 -3 -3 -3 -3 -2 -3 -3 -3 -2 -2 -2 -2 -2 -2 -2
3 3 3 3 3 3 3 3 3 3 3 3 2 2 2 2 2 1 1 1 1 1 1 0 0 0 -0 -0 -0 -1 -1 -1 -2 -2 -2 -2 -3 -3 -3 -3 -3 -3 -3 -4 -4 -4 -4 -4 -4 -3 -3 -3 -3 -3 -3 -3 -3 -3 -3 -3 -3 -3 -3 -3 -3 -3 -3 -3 -3 -3 -3 -3 -3 -3 -2 -2 -2 -2 -2 -2 -2 -2 -2 -2 -2
3 3 3 3 3 3 3 3 3 3 3 3 2 2 2 2 2 1 1 1 1 1 1 1 0 0 0 -0 -0 -1 -1 -1 -2 -2 -2 -2 -2 -3 -3 -3 -3 -3 -3 -3 -4 -4 -4 -4 -4 -4 -4 -4 -3 -3 -3 -3 -3 -3 -3 -3 -3 -3 -3 -3 -3 -3 -3 -3 -3 -3 -3 -3 -3 -3 -3 -2 -2 -2 -2 -2 -2 -2 -2 -2 -2
3 3 3 3 3 3 3 3 3 3 3 3 2 2 2 2 2 1 1 1 1 1 1 1 0 0 0 -0 -0 -1 -1 -1 -1 -2 -2 -2 -2 -2 -3 -3 -3 -3 -3 -3 -3 -3 -4 -4 -4 -4 -4 -4 -4 -3 -3 -3 -3 -3 -3 -3 -3 -3 -3 -3 -3 -3 -3 -3 -3 -3 -3 -3 -3 -3 -3 -3 -2 -2 -2 -2 -2 -2 -1 -1 -1
3 3 3 3 3 3 3 3 3 3 3 2 2 2 2 2 2 1 1 1 1 1 1 1 0 0 -0 -0 -0 -1 -1 -1 -1 -2 -2 -2 -2 -2 -2 -3 -3 -3 -3 -3 -3 -3 -3 -3 -4 -4 -4 -4 -4 -4 -3 -3 -3 -3 -4 -4 -3 -3 -3 -3 -3 -3 -3 -3 -3 -3 -3 -2 -2 -2 -2 -2 -2 -2 -2 -2 -2 -2 -2 -1 -1
3 3 3 3 3 3 3 3 3 3 2 2 2 2 2 2 2 1 1 1 1 1 1 1 0 0 0 -0 -0 -1 -1 -1 -1 -1 -1 -2 -2 -2 -2 -2 -3 -3 -3 -3 -3 -3 -3 -3 -3 -4 -4 -4 -4 -4 -4 -4 -4 -4 -4 -4 -4 -4 -4 -4 -4 -4 -3 -3 -3 -3 -3 -3 -2 -2 -2 -2 -2 -2 -2 -2 -2 -2 -2 -2 -1
3 3 3 3 3 3 3 3 3 3 2 2 2 2 2 2 2 1 1 1 1 1 1 0 0 0 0 -0 -0 -1 -1 -1 -1 -1 -1 -2 -2 -2 -2 -2 -3 -3 -3 -3 -3 -3 -3 -3 -3 -3 -4 -4 -4 -4 -4 -4 -4 -4 -4 -4 -4 -4 -4 -4 -4 -4 -4 -3 -3 -3 -3 -3 -3 -2 -2 -2 -2 -2 -2 -2 -2 -2 -1 -1 -1
3 3 3 3 3 3 3 3 3 2 2 2 2 2 2 2 2 1 1 1 1 1 1 0 0 0 -0 -0 -0 -1 -1 -1 -1 -1 -1 -2 -2 -2 -2 -2 -2 -3 -3 -3 -3 -3 -3 -3 -3 -3 -3 -3 -4 -4 -4 -4 -4 -4 -4 -4 -4 -4 -4 -4 -4 -4 -4 -4 -3 -3 -3 -3 -3 -3 -2 -2 -2 -2 -2 -2 -2 -2 -1 -1 -1
3 3 3 3 3 3 3 2 2 2 2 2 2 2 2 2 2 2 1 1 1 1 1 0 0 0 -0 -0 -0 -1 -1 -1 -1 -1 -1 -1 -2 -2 -2 -2 -2 -2 -3 -3 -3 -3 -3 -3 -3 -3 -3 -4 -4 -4 -4 -4 -4 -4 -4 -4 -4 -4 -4 -4 -4 -4 -4 -4 -4 -3 -3 -3 -3 -3 -2 -2 -2 -2 -2 -2 -2 -2 -2 -2 -2
3 3 3 3 3 3 3 2 2 2 2 2 2 2 2 2 2 2 2 1 1 1 1 1 0 0 -0 -0 -0 -0 -1 -1 -1 -1 -1 -1 -2 -2 -2 -2 -2 -2 -3 -3 -3 -3 -3 -3 -3 -3 -3 -4 -4 -4 -4 -4 -4 -4 -4 -4 -4 -4 -4 -4 -4 -4 -4 -4 -4 -4 -3 -3 -3 -3 -3 -2 -2 -2 -2 -2 -2 -2 -2 -2 -2
3 3 3 3 3 3 3 2 2 2 2 2 2 2 2 2 2 2 2 1 1 1 1 1 1 0 0 -0 -0 -0 -1 -1 -1 -1 -1 -1 -2 -2 -2 -2 -2 -2 -3 -3 -3 -3 -3 -3 -3 -3 -3 -4 -4 -4 -4 -4 -4 -4 -4 -3 -3 -4 -3 -3 -3 -4 -4 -4 -4 -4 -4 -3 -3 -3 -3 -3 -3 -2 -2 -2 -2 -2 -2 -2 -2
3 3 3 3 3 3 3 3 3 2 2 2 2 2 2 2 2 2 2 1 1 1 1 1 1 0 0 0 0 -0 -0 -1 -1 -1 -1 -2 -2 -2 -2 -2 -2 -3 -3 -3 -3 -3 -3 -3 -3 -3 -3 -4 -4 -4 -4 -4 -4 -4 -4 -3 -3 -3 -3 -3 -3 -3 -3 -3 -4 -4 -4 -3 -3 -3 -3 -3 -3 -3 -3 -2 -2 -2 -2 -2 -2
Height
1546 1545 1544 1542 1541 1539 1537 1536 1535 1533 1532 1531 1530 1530 1529 1528 1527 1526 1525 1523 1522 1520 1519 1517 1516 1515 1513 1511 1509 1508 1506 1504 1501 1499 1497 1495 1493 1491 1489 1487 1485 1483 1480 1479 1477 1476 1474 1473 1472 1473 1474 1475 1476 1477 1478 1480 1481 1481 1481 1481 1482 1484 1486 1487 1487 1489 1491 1493 1494 1496 1497 1498 1499 1501 1504 1506 1508 1510 1512 1515 1517 1519 1521 1522 1523
1546 1545 1544 1542 1541 1539 1538 1537 1535 1534 1532 1531 1531 1530 1529 1528 1527 1526 1524 1523 1521 1520 1519 1517 1515 1514 1512 1510 1509 1507 1505 1502 1500 1498 1495 1493 1491 1489 1487 1485 1483 1481 1478 1477 1475 1474 1473 1472 1471 1471 1471 1472 1473 1475 1476 1476 1477 1477 1478 1479 1480 1481 1483 1484 1485 1486 1487 1489 1491 1492 1494 1494 1496 1498 1500 1502 1504 1507 1509 1511 1514 1516 1518 1520 1521
1547 1546 1544 1543 1541 1540 1538 1537 1535 1533 1532 1531 1531 1530 1530 1529 1527 1526 1524 1523 1521 1519 1518 1516 1515 1513 1511 1509 1507 1505 1503 1501 1498 1496 1494 1492 1490 1488 1486 1484 1482 1479 1477 1475 1474 1473 1471 1470 1470 1469 1469 1470 1471 1472 1473 1473 1474 1474 1475 1476 1477 1478 1480 1482 1482 1483 1484 1486 1488 1489 1490 1491 1493 1494 1497 1499 1501 1503 1505 1508 1510 1513 1515 1517 1519
1547 1546 1544 1543 1541 1540 1538 1537 1535 1533 1532 1532 1531 1531 1530 1529 1527 1526 1524 1523 1521 1519 1518 1516 1514 1512 1510 1508 1506 1504 1502 1499 1497 1495 1493 1491 1488 1486 1484 1482 1480 1478 1476 1474 1473 1471 1470 1469 1468 1468 1468 1468 1468 1469 1470 1470 1470 1471 1472 1473 1474 1476 1477 1478 1479 1480 1481 1483 1484 1486 1487 1488 1490 1491 1494 1496 1498 1500 1502 1504 1507 1510 1512 1515 1516
1547 1546 1544 1542 1541 1540 1538 1537 1535 1534 1533 1533 1532 1531 1530 1529 1527 1526 1524 1522 1521 1519 1517 1515 1513 1511 1509 1507 1505 1502 1500 1498 1495 1493 1491 1490 1487 1485 1483 1481 1479 1477 1475 1474 1472 1470 1469 1468 1467 1467 1466 1466 1466 1467 1467 1467 1468 1468 1469 1470 1471 1473 1474 1474 1475 1477 1479 1480 1481 1483 1484 1485 1487 1488 1490 1492 1494 1497 1499 1502 1504 1507 1510 1512 1514
1548 1546 1545 1543 1542 1540 1539 1537 1536 1535 1534 1534 1533 1532 1530 1529 1527 1526 1524 1522 1520 1518 1516 1514 1512 1511 1509 1506 1504 1502 1499 1497 1494 1492 1490 1488 1486 1484 1481 1479 1478 1476 1474 1473 1471 1470 1468 1467 1466 1466 1465 1465 1464 1464 1465 1465 1465 1465 1466 1467 1468 1469 1470 1470 1472 1475 1476 1477 1479 1480 1481 1482 1483 1484 1486 1488 1490 1493 1495 1498 1502 1505 1507 1509 1511
1548 1547 1545 1543 1542 1541 1539 1538 1537 1536 1536 1535 1534 1532 1531 1529 1528 1526 1524 1522 1520 1518 1516 1514 1512 1510 1508 1506 1503 1501 1498 1496 1493 1491 1488 1486 1484 1481 1479 1478 1476 1474 1473 1471 1470 1469 1467 1466 1465 1465 1464 1464 1463 1463 1463 1463 1463 1463 1463 1463 1465 1466 1467 1467 1469 1472 1473 1474 1476 1476 1477 1478 1480 1481 1483 1486 1488 1489 1491 1493 1497 1500 1503 1506 1508
1549 1547 1546 1544 1543 1542 1540 1539 1538 1538 1537 1536 1534 1532 1531 1530 1528 1527 1524 1522 1520 1518 1516 1514 1512 1510 1508 1505 1503 1500 1497 1494 1491 1488 1486 1484 1482 1480 1478 1476 1474 1472 1471 1470 1468 1467 1466 1465 1464 1464 1463 1462 1462 1461 1461 1461 1460 1460 1460 1461 1462 1463 1464 1465 1466 1468 1470 1472 1473 1473 1474 1476 1478 1479 1481 1483 1483 1484 1486 1490 1493 1496 1499 1502 1505
1549 1547 1546 1545 1544 1543 1542 1540 1540 1539 1538 1536 1534 1533 1531 1530 1529 1527 1525 1522 1520 1518 1516 1514 1512 1510 1507 1505 1503 1500 1497 1494 1491 1488 1485 1482 1480 1478 1476 1474 1472 1470 1469 1468 1467 1465 1464 1464 1463 1463 1461 1460 1460 1459 1459 1459 1458 1457 1457 1458 1458 1459 1460 1461 1462 1464 1467 1468 1470 1470 1471 1473 1475 1476 1477 1477 1478 1480 1484 1488 1491 1494 1497 1500 1502
1549 1548 1546 1545 1545 1544 1543 1542 1541 1540 1538 1537 1535 1534 1532 1531 1529 1527 1525 1523 1521 1519 1517 1514 1512 1509 1507 1505 1502 1499 1497 1494 1492 1489 1486 1483 1480 1477 1475 1473 1471 1469 1467 1466 1465 1463 1462 1461 1461 1460 1459 1458 1457 1457 1456 1456 1455 1455 1455 1455 1455 1456 1457 1458 1458 1460 1462 1464 1466 1467 1468 1469 1471 1472 1473 1474 1477 1479 1482 1485 1487 1491 1495 1498 1499
1550 1548 1547 1546 1545 1545 1544 1543 1542 1541 1539 1537 1536 1535 1533 1532 1530 1528 1526 1524 1521 1519 1517 1514 1512 1510 1507 1505 1502 1499 1497 1495 1493 1490 1486 1483 1480 1477 1474 1472 1470 1468 1466 1465 1463 1462 1461 1460 1459 1457 1456 1456 1455 1454 1453 1453 1452 1452 1452 1452 1452 1453 1454 1455 1455 1456 1457 1458 1461 1463 1464 1465 1467 1469 1471 1473 1475 1477 1479 1481 1484 1487 1490 1492 1494
1550 1549 1548 1547 1547 1546 1546 1544 1543 1541 1539 1538 1537 1536 1534 1532 1530 1528 1526 1524 1522 1520 1517 1515 1512 1510 1508 1505 1503 1500 1498 1495 1493 1490 1486 1483 1480 1477 1474 1472 1469 1467 1465 1464 1462 1461 1460 1458 1457 1456 1454 1454 1452 1452 1451 1450 1449 1449 1448 1449 1449 1450 1450 1452 1452 1453 1453 1454 1456 1457 1459 1462 1464 1466 1467 1469 1471 1474 1476 1478 1480 1483 1485 1487 1490
1551 1550 1549 1549 1548 1548 1547 1545 1543 1542 1541 1540 1539 1537 1535 1533 1531 1529 1527 1525 1523 1520 1518 1516 1513 1511 1508 1506 1503 1501 1498 1495 1493 1490 1487 1484 1481 1477 1474 1472 1469 1466 1464 1462 1461 1459 1458 1456 1455 1454 1452 1451 1450 1449 1449 1448 1447 1446 1446 1446 1446 1446 1447 1448 1449 1450 1450 1452 1453 1454 1456 1459 1460 1462 1463 1465 1468 1470 1472 1475 1477 1479 1480 1483 1486
1552 1551 1551 1550 1550 1549 1547 1545 1544 1543 1542 1541 1540 1538 1536 1534 1532 1530 1528 1526 1524 1521 1519 1516 1514 1511 1509 1506 1504 1501 1498 1496 1493 1490 1487 1484 1481 1478 1475 1472 1469 1466 1464 1462 1459 1458 1456 1454 1453 1451 1450 1449 1448 1447 1447 1446 1445 1444 1443 1443 1443 1443 1443 1444 1445 1446 1448 1449 1450 1450 1453 1455 1456 1458 1460 1462 1464 1465 1467 1470 1472 1474 1476 1480 1485
1553 1553 1552 1552 1551 1549 1548 1546 1545 1544 1543 1542 1540 1539 1537 1535 1533 1531 1529 1527 1525 1522 1520 1517 1515 1512 1510 1507 1505 1502 1499 1496 1494 1490 1488 1485 1481 1479 1475 1472 1469 1467 1464 1461 1459 1457 1455 1453 1451 1449 1448 1447 1446 1445 1444 1444 1443 1442 1442 1441 1441 1440 1441 1441 1442 1443 1444 1446 1446 1447 1449 1451 1453 1455 1458 1459 1460 1462 1464 1465 1467 1470 1474 1479 1484
1554 1554 1553 1552 1551 1550 1549 1548 1546 1545 1544 1543 1541 1539 1538 1536 1534 1533 1531 1528 1526 1524 1521 1518 1515 1513 1510 1508 1505 1502 1500 1497 1494 1491 1488 1485 1481 1479 1476 1473 1470 1467 1464 1461 1459 1456 1454 1452 1450 1448 1446 1445 1444 1443 1442 1441 1441 1440 1440 1439 1439 1438 1438 1438 1439 1440 1442 1443 1443 1445 1447 1449 1451 1453 1454 1456 1457 1459 1462 1462 1465 1470 1473 1476 1480
1555 1555 1554 1553 1552 1551 1550 1549 1547 1546 1545 1544 1542 1541 1539 1538 1536 1534 1532 1529 1527 1524 1522 1519 1516 1513 1510 1508 1505 1503 1500 1498 1495 1492 1489 1485 1482 1478 1476 1473 1470 1467 1464 1462 1459 1457 1454 1451 1449 1447 1445 1443 1441 1440 1439 1438 1438 1438 1437 1436 1436 1436 1435 1435 1436 1437 1438 1439 1440 1442 1444 1446 1448 1450 1451 1452 1453 1456 1458 1459 1463 1467 1469 1471 1474
1556 1555 1555 1554 1553 1552 1551 1550 1548 1547 1546 1545 1544 1542 1541 1539 1537 1535 1533 1530 1528 1525 1523 1520 1517 1514 1511 1508 1506 1503 1501 1498 1496 1493 1490 1486 1483 1479 1476 1473 1470 1467 1464 1462 1460 1457 1454 1452 1449 1446 1444 1442 1440 1438 1437 1436 1436 1436 1435 1434 1433 1433 1433 1434 1434 1434 1435 1435 1436 1438 1440 1442 1444 1445 1447 1449 1450 1452 1453 1455 1459 1463 1464 1466 1468
1557 1556 1556 1555 1554 1553 1552 1551 1550 1549 1548 1547 1546 1544 1543 1541 1539 1537 1534 1532 1529 1527 1524 1521 1518 1515 1512 1509 1506 1504 1502 1499 1497 1494 1491 1488 1484 1481 1477 1474 1470 1467 1464 1462 1459 1457 1454 1451 1449 1446 1443 1441 1439 1437 1435 1434 1433 1433 1432 1431 1431 1430 1431 1431 1432 1432 1433 1433 1434 1435 1437 1439 1441 1442 1443 1445 1447 1449 1450 1452 1455 1458 1460 1462 1464
1558 1557 1556 1555 1555 1554 1553 1552 1551 1550 1550 1549 1547 1546 1544 1542 1541 1538 1536 1533 1531 1528 1525 1522 1519 1516 1513 1509 1507 1504 1502 1500 1498 1496 1493 1490 1486 1483 1479 1475 1471 1468 1465 1462 1459 1456 1453 1451 1448 1445 1443 1440 1437 1435 1433 1432 1431 1430 1429 1429 1428 1428 1428 1429 1430 1431 1431 1431 1432 1433 1434 1436 1438 1438 1439 1442 1444 1446 1447 1449 1451 1454 1456 1458 1460
1559 1558 1557 1556 1555 1555 1554 1554 1553 1552 1551 1550 1549 1547 1545 1544 1541 1539 1537 1535 1532 1529 1526 1523 1520 1517 1513 1511 1508 1505 1503 1501 1499 1497 1494 1491 1488 1485 1481 1477 1474 1470 1467 1463 1460 1456 1453 1450 1448 1445 1442 1439 1437 1434 1432 1430 1428 1427 1426 1426 1426 1425 1426 1427 1428 1429 1429 1429 1430 1431 1431 1433 1435 1436 1437 1440 1442 1443 1445 1446 1447 1450 1453 1455 1456
1559 1558 1558 1557 1557 1556 1556 1555 1554 1554 1553 1551 1550 1548 1546 1545 1542 1540 1538 1535 1533 1530 1527 1524 1521 1517 1514 1511 1509 1506 1504 1502 1500 1498 1495 1493 1490 1487 1483 1480 1476 1472 1468 1465 1461 1458 1455 1452 1449 1446 1443 1441 1437 1434 1431 1429 1427 1425 1423 1423 1423 1423 1424 1425 1426 1426 1427 1427 1428 1429 1429 1431 1433 1434 1436 1438 1439 1439 1441 1442 1444 1447 1450 1452 1454
1559 1559 1558 1558 1558 1558 1557 1557 1556 1555 1554 1552 1550 1549 1547 1545 1543 1541 1539 1536 1533 1531 1528 1525 1521 1518 1515 1512 1509 1507 1505 1503 1501 1499 1496 1494 1491 1489 1486 1482 1479 1475 1471 1467 1463 1460 1457 1453 1451 1448 1446 1443 1439 1435 1432 1428 1425 1423 1421 1421 1420 1421 1422 1423 1423 1424 1425 1425 1426 1427 1428 1429 1431 1432 1434 1435 1435 1436 1438 1440 1443 1446 1448 1449 1451
1560 1560 1559 1559 1559 1559 1558 1558 1557 1556 1554 1553 1551 1549 1548 1546 1544 1542 1540 1537 1534 1532 1529 1526 1522 1519 1515 1513 1510 1508 1506 1504 1502 1500 1497 1495 1493 1490 1487 1484 1480 1477 1473 1470 1466 1462 1459 1456 1452 1450 1447 1444 1441 1437 1433 1430 1426 1423 1421 1420 1419 1419 1420 1421 1422 1422 1423 1423 1424 1425 1426 1427 1428 1430 1432 1432 1433 1434 1437 1439 1441 1443 1445 1446 1448
1561 1561 1561 1560 1560 1559 1559 1558 1558 1557 1555 1554 1552 1550 1549 1547 1545 1543 1540 1538 1535 1533 1530 1527 1524 1520 1517 1514 1511 1509 1506 1504 1502 1500 1498 1496 1494 1492 1489 1486 1482 1479 1476 1473 1469 1465 1462 1458 1455 1451 1448 1445 1442 1439 1435 1431 1428 1424 1422 1421 1419 1417 1417 1419 1421 1421 1421 1421 1422 1423 1424 1425 1426 1427 1428 1429 1430 1433 1434 1436 1438 1440 1441 1443 1445
1562 1562 1562 1561 1561 1560 1560 1559 1558 1557 1556 1554 1553 1551 1549 1548 1546 1544 1541 1539 1537 1534 1532 1529 1526 1522 1519 1516 1513 1510 1507 1504 1503 1501 1500 1497 1495 1493 1490 1487 1484 1481 1478 1475 1472 1468 1464 1460 1456 1452 1449 1446 1443 1440 1437 1434 1431 1428 1425 1423 1422 1420 1418 1418 1419 1420 1421 1420 1421 1422 1423 1424 1425 1425 1426 1427 1428 1430 1432 1433 1435 1438 1439 1440 1442
1562 1562 1562 1562 1561 1561 1560 1559 1558 1557 1556 1555 1554 1552 1550 1549 1547 1545 1542 1540 1538 1536 1533 1530 1527 1523 1520 1517 1515 1511 1508 1505 1503 1502 1500 1499 1497 1494 1491 1488 1485 1482 1479 1476 1472 1469 1466 1462 1458 1454 1451 1448 1445 1442 1439 1436 1434 1431 1428 1426 1425 1424 1423 1421 1420 1420 1420 1420 1420 1422 1423 1425 1426 1425 1425 1426 1427 1429 1430 1431 1433 1436 1438 1439 1440
1563 1563 1562 1562 1562 1561 1560 1559 1559 1558 1557 1555 1554 1552 1551 1549 1548 1546 1543 1541 1539 1537 1535 1532 1529 1525 1522 1519 1516 1513 1510 1507 1505 1503 1502 1500 1498 1495 1493 1490 1487 1483 1480 1477 1474 1471 1468 1464 1459 1455 1452 1449 1446 1443 1441 1439 1436 1434 1432 1430 1429 1428 1427 1427 1426 1425 1424 1423 1422 1422 1424 1426 1428 1427 1426 1427 1428 1429 1431 1432 1434 1436 1437 1438 1439
1563 1563 1562 1562 1562 1561 1560 1559 1558 1558 1557 1555 1554 1553 1551 1550 1548 1546 1545 1542 1540 1538 1536 1533 1531 1528 1525 1521 1518 1514 1512 1509 1508 1507 1505 1503 1500 1497 1494 1492 1489 1486 1482 1479 1476 1473 1469 1464 1460 1456 1453 1450 1447 1445 1443 1441 1439 1438 1436 1435 1433 1432 1431 1430 1430 1430 1430 1429 1427 1427 1428 1430 1431 1430 1429 1429 1430 1431 1432 1434 1435 1437 1438 1439 1439
1563 1563 1562 1562 1561 1561 1560 1559 1559 1558 1557 1555 1554 1553 1552 1550 1549 1547 1546 1544 1542 1540 1537 1535 1532 1530 1527 1524 1521 1519 1516 1514 1511 1509 1507 1504 1502 1499 1497 1495 1492 1488 1485 1482 1478 1474 1470 1466 1462 1459 1456 1453 1450 1448 1446 1444 1443 1441 1440 1439 1438 1436 1435 1434 1433 1434 1434 1433 1432 1432 1432 1434 1435 1435 1433 1432 1433 1434 1435 1436 1438 1438 1439 1440 1440
1563 1562 1562 1561 1561 1560 1560 1559 1559 1558 1557 1555 1554 1553 1552 1551 1549 1548 1547 1545 1543 1541 1539 1536 1534 1532 1529 1527 1524 1522 1520 1517 1513 1510 1508 1506 1503 1501 1499 1497 1493 1490 1488 1485 1480 1476 1473 1470 1466 1463 1460 1458 1455 1453 1451 1449 1447 1446 1444 1443 1442 1441 1440 1439 1439 1438 1437 1435 1435 1435 1435 1436 1437 1438 1438 1437 1437 1438 1439 1440 1441 1441 1442 1442 1443
1562 1562 1561 1561 1561 1560 1560 1559 1559 1558 1557 1556 1555 1553 1552 1551 1550 1548 1547 1546 1544 1542 1540 1538 1536 1534 1531 1528 1526 1524 1521 1518 1514 1511 1509 1507 1505 1503 1501 1498 1495 1492 1490 1487 1483 1480 1477 1474 1471 1468 1465 1463 1460 1458 1456 1454 1452 1450 1449 1447 1446 1445 1444 1443 1442 1442 1440 1439 1439 1439 1439 1439 1440 1440 1441 1441 1441 1442 1443 1444 1445 1446 1446 1446 1447
1562 1562 1561 1561 1560 1560 1560 1559 1558 1558 1557 1556 1555 1554 1552 1551 1550 1549 1548 1546 1544 1542 1541 1539 1537 1535 1532 1530 1528 1525 1522 1519 1516 1513 1510 1508 1506 1505 1502 1499 1497 1495 1492 1489 1486 1483 1481 1478 1476 1473 1471 1468 1466 1463 1461 1459 1457 1455 1453 1452 1450 1449 1448 1446 1445 1444 1444 1443 1443 1443 1443 1443 1444 1444 1445 1445 1445 1446 1446 1447 1449 1450 1451 1452 1452
1562 1561 1561 1560 1560 1560 1559 1559 1559 1558 1557 1556 1555 1554 1553 1551 1550 1549 1548 1547 1545 1543 1541 1539 1538 1536 1534 1532 1529 1527 1524 1521 1518 1515 1512 1510 1508 1506 1504 1501 1499 1496 1494 1491 1489 1487 1485 1482 1480 1478 1476 1474 1471 1469 1466 1464 1463 1461 1459 1457 1455 1454 1453 1451 1450 1448 1448 1447 1447 1447 1447 1447 1447 1448 1448 1448 1449 1449 1449 1450 1451 1453 1454 1455 1456
1561 1560 1560 1560 1560 1560 1560 1559 1559 1558 1557 1556 1555 1554 1553 1552 1551 1550 1548 1547 1545 1544 1542 1540 1538 1536 1535 1533 1530 1528 1526 1523 1520 1517 1514 1511 1509 1507 1505 1502 1500 1497 1495 1494 1492 1490 1488 1486 1484 1482 1480 1478 1476 1474 1471 1469 1467 1466 1464 1462 1461 1459 1458 1456 1455 1454 1453 1452 1451 1451 1451 1451 1451 1451 1451 1451 1451 1452 1452 1453 1455 1456 1457 1458 1459
1560 1560 1560 1560 1560 1560 1559 1559 1558 1558 1557 1557 1556 1554 1553 1552 1551 1550 1549 1547 1546 1544 1543 1541 1539 1538 1536 1534 1531 1529 1527 1525 1522 1519 1516 1514 1511 1508 1506 1503 1501 1500 1498 1496 1495 1493 1491 1490 1488 1486 1484 1482 1480 1478 1476 1474 1472 1470 1468 1467 1465 1464 1463 1461 1460 1459 1458 1457 1456 1456 1455 1455 1455 1455 1455 1455 1455 1455 1456 1457 1458 1460 1461 1462 1463
1560 1560 1560 1560 1560 1559 1559 1558 1558 1558 1557 1557 1556 1555 1554 1553 1551 1550 1549 1548 1546 1545 1544 1542 1540 1539 1536 1534 1532 1531 1528 1526 1524 1521 1519 1516 1513 1510 1508 1506 1504 1502 1501 1499 1497 1496 1494 1492 1491 1489 1487 1485 1484 1482 1480 1478 1476 1474 1473 1471 1470 1468 1467 1466 1465 1464 1463 1462 1461 1460 1460 1459 1459 1459 1459 1459 1459 1459 1460 1461 1462 1463 1465 1466 1467
1560 1560 1560 1560 1559 1559 1558 1558 1558 1558 1557 1556 1556 1555 1554 1553 1551 1550 1549 1548 1547 1545 1544 1542 1541 1539 1537 1535 1533 1531 1530 1528 1526 1523 1520 1517 1515 1512 1510 1508 1506 1505 1503 1501 1500 1498 1497 1495 1493 1492 1490 1488 1487 1485 1483 1481 1480 1478 1477 1475 1474 1473 1471 1470 1469 1468 1467 1466 1465 1465 1464 1464 1464 1463 1463 1463 1463 1463 1464 1464 1465 1466 1468 1469 1470
1559 1559 1559 1559 1559 1558 1557 1557 1557 1557 1556 1556 1555 1555 1554 1552 1551 1550 1549 1548 1547 1546 1544 1543 1541 1539 1538 1536 1534 1532 1531 1529 1526 1524 1521 1519 1517 1514 1512 1510 1508 1506 1505 1503 1502 1501 1499 1498 1496 1494 1493 1491 1490 1488 1487 1485 1483 1482 1480 1479 1477 1476 1475 1473 1472 1471 1471 1470 1469 1469 1469 1468 1468 1468 1467 1467 1467 1467 1467 1468 1469 1469 1470 1471 1472
1558 1558 1558 1558 1558 1557 1557 1557 1557 1556 1556 1555 1555 1554 1553 1552 1551 1550 1549 1548 1547 1546 1544 1543 1541 1540 1538 1536 1535 1533 1531 1529 1527 1525 1523 1521 1519 1516 1514 1512 1510 1508 1507 1505 1504 1502 1501 1500 1498 1497 1495 1493 1492 1491 1489 1488 1487 1485 1484 1482 1481 1480 1478 1477 1476 1475 1475 1474 1473 1473 1472 1472 1472 1472 1471 1471 1471 1471 1471 1471 1472 1472 1473 1474 1474
1557 1558 1558 1557 1557 1557 1556 1556 1556 1555 1555 1555 1554 1554 1553 1552 1551 1550 1549 1548 1547 1546 1544 1543 1542 1540 1538 1537 1535 1534 1532 1530 1528 1527 1525 1523 1520 1518 1516 1514 1512 1510 1509 1507 1506 1504 1503 1501 1500 1499 1497 1496 1495 1493 1492 1491 1489 1488 1487 1486 1485 1483 1482 1481 1480 1479 1479 1478 1477 1476 1476 1475 1475 1475 1475 1475 1475 1475 1475 1475 1475 1475 1476 1476 1477
1557 1557 1557 1557 1556 1556 1556 1555 1555 1555 1554 1554 1553 1553 1552 1552 1551 1550 1549 1548 1547 1546 1544 1543 1542 1540 1539 1537 1536 1534 1533 1531 1529 1528 1526 1524 1522 1520 1518 1516 1514 1513 1511 1509 1507 1506 1504 1503 1502 1500 1499 1498 1497 1495 1494 1493 1492 1491 1490 1489 1488 1487 1486 1484 1484 1483 1482 1481 1481 1480 1479 1479 1478 1478 1478 1478 1478 1477 1477 1477 1478 1478 1479 1479 1480
1556 1556 1556 1556 1555 1555 1555 1555 1554 1554 1553 1553 1552 1552 1552 1551 1550 1549 1548 1547 1546 1545 1544 1543 1542 1540 1539 1537 1536 1535 1533 1532 1530 1529 1527 1525 1524 1522 1520 1518 1516 1515 1513 1511 1509 1508 1506 1504 1503 1502 1500 1499 1499 1497 1496 1495 1494 1493 1492 1491 1490 1489 1488 1487 1486 1486 1485 1484 1484 1483 1482 1482 1482 1481 1481 1481 1480 1480 1480 1480 1480 1481 1481 1482 1482
1555 1555 1555 1555 1554 1554 1554 1554 1553 1553 1552 1552 1552 1551 1551 1550 1550 1549 1548 1547 1546 1545 1544 1543 1541 1540 1539 1538 1536 1535 1533 1532 1531 1529 1528 1526 1525 1523 1521 1520 1518 1517 1515 1513 1512 1510 1508 1506 1505 1503 1502 1501 1500 1499 1498 1497 1496 1495 1494 1493 1492 1491 1490 1489 1488 1487 1487 1486 1486 1485 1485 1485 1484 1484 1484 1483 1483 1483 1483 1483 1483 1483 1483 1484 1484
1554 1554 1554 1554 1553 1553 1553 1553 1552 1552 1552 1551 1551 1550 1550 1549 1549 1548 1547 1546 1545 1544 1543 1542 1541 1540 1539 1537 1536 1535 1534 1532 1531 1530 1528 1527 1525 1524 1522 1521 1519 1518 1516 1515 1513 1511 1510 1508 1506 1505 1504 1503 1502 1501 1500 1499 1498 1497 1495 1494 1493 1492 1491 1490 1489 1489 1488 1488 1488 1487 1487 1486 1486 1486 1486 1485 1485 1485 1485 1485 1485 1485 1485 1485 1486
1553 1553 1553 1553 1552 1552 1552 1551 1551 1551 1551 1550 1550 1550 1549 1548 1548 1547 1547 1546 1545 1544 1543 1542 1541 1539 1538 1537 1536 1535 1534 1533 1531 1530 1529 1527 1526 1525 1523 1522 1520 1519 1517 1516 1514 1513 1511 1510 1508 1507 1506 1505 1504 1503 1501 1500 1499 1498 1497 1496 1494 1493 1492 1492 1491 1490 1490 1489 1489 1489 1488 1488 1488 1487 1487 1487 1487 1486 1486 1485 1485 1485 1486 1486 1487
1551 1551 1551 1551 1551 1551 1551 1550 1550 1550 1550 1549 1549 1549 1548 1547 1547 1546 1546 1545 1544 1543 1542 1541 1540 1539 1538 1537 1536 1535 1534 1532 1531 1530 1529 1527 1526 1525 1524 1522 1521 1519 1518 1517 1515 1514 1512 1511 1510 1509 1507 1506 1505 1504 1503 1501 1500 1499 1498 1496 1495 1494 1493 1492 1491 1491 1490 1490 1490 1490 1489 1489 1489 1488 1488 1488 1488 1487 1487 1486 1486 1486 1486 1487 1487
1550 1550 1550 1550 1550 1550 1550 1549 1549 1549 1548 1548 1548 1548 1547 1546 1546 1545 1545 1544 1543 1542 1541 1540 1539 1538 1537 1536 1535 1534 1533 1532 1531 1530 1529 1527 1526 1525 1524 1523 1521 1520 1519 1517 1516 1515 1513 1512 1511 1509 1508 1507 1506 1505 1503 1502 1501 1499 1498 1496 1495 1494 1493 1493 1492 1491 1491 1491 1491 1490 1490 1490 1489 1489 1489 1488 1488 1488 1488 1487 1487 1487 1487 1487 1488
1548 1548 1549 1549 1549 1548 1548 1548 1548 1547 1547 1547 1547 1546 1546 1545 1544 1544 1543 1543 1542 1541 1540 1539 1538 1537 1536 1535 1534 1533 1532 1531 1530 1529 1528 1527 1526 1525 1524 1523 1521 1520 1519 1518 1516 1515 1514 1513 1511 1510 1509 1508 1506 1505 1504 1503 1501 1500 1498 1496 1495 1494 1494 1493 1493 1492 1492 1492 1491 1491 1490 1490 1489 1489 1488 1488 1488 1488 1488 1488 1488 1488 1488 1488 1488
1546 1547 1547 1547 1547 1547 1547 1546 1546 1546 1546 1545 1545 1545 1544 1544 1543 1543 1542 1541 1540 1540 1539 1538 1537 1536 1535 1534 1533 1532 1531 1531 1530 1529 1528 1527 1526 1525 1524 1522 1521 1520 1519 1518 1517 1515 1514 1513 1512 1510 1509 1508 1507 1506 1504 1503 1502 1500 1498 1497 1495 1495 1494 1494 1493 1493 1493 1492 1492 1491 1490 1490 1489 1488 1488 1487 1487 1487 1488 1488 1489 1489 1489 1488 1488
1544 1545 1545 1545 1545 1545 1545 1545 1544 1544 1544 1544 1543 1543 1543 1542 1542 1541 1541 1540 1539 1539 1538 1537 1536 1535 1534 1533 1533 1532 1531 1530 1529 1528 1527 1526 1525 1524 1523 1522 1521 1520 1519 1518 1517 1516 1514 1513 1512 1511 1510 1508 1507 1506 1504 1503 1502 1501 1499 1498 1496 1496 1495 1495 1494 1494 1494 1493 1493 1492 1491 1490 1489 1488 1488 1487 1487 1488 1488 1489 1489 1489 1489 1489 1489
Wind_Speed
9 9 11 11 12 14 14 14 15 14 13 13 13 13 13 12 11 9 7 6 6 7 8 9 12 14 15 16 15 14 16 18 18 18 17 17 17 18 19 20 19 18 19 20 19 18 19 20 21 22 21 21 22 22 22 22 23 24 23 24 25 25 28 31 31 31 29 27 26 25 28 32 35 36 36 35 33 32 31 30 28 25 22 20 20
8 8 8 9 10 11 12 13 15 14 14 15 15 14 15 14 12 10 8 7 7 7 7 7 10 12 14 16 16 16 17 18 18 18 18 18 18 18 19 20 20 18 17 18 17 16 18 19 20 20 21 21 22 21 22 23 24 25 24 25 26 27 28 29 31 31 31 30 28 26 28 33 35 37 38 37 36 35 34 32 29 27 25 22 21
7 7 7 9 9 9 10 13 16 17 16 16 16 15 15 15 14 12 11 10 9 9 9 10 11 11 13 15 17 17 18 19 19 18 18 19 19 18 18 19 20 19 17 16 15 15 17 17 17 18 19 20 21 22 23 24 24 25 25 25 27 28 29 29 31 32 32 31 30 29 28 31 34 36 38 38 38 37 35 34 31 29 27 24 22
13 13 14 16 17 15 15 16 19 20 18 17 16 16 16 15 15 15 14 12 10 10 11 11 11 12 13 15 17 18 20 21 21 20 19 20 21 19 17 17 18 18 17 15 14 14 14 14 14 15 17 19 20 22 24 24 25 26 25 25 26 28 29 30 31 32 33 32 32 31 30 30 32 35 37 38 40 38 35 35 33 30 29 26 24
21 22 22 24 25 26 25 24 25 25 23 20 17 16 16 15 15 15 15 14 13 13 12 12 12 13 14 16 18 19 21 21 22 22 22 22 22 20 18 16 16 17 17 15 13 12 13 13 13 13 15 16 18 20 22 23 25 26 26 26 27 28 29 30 31 33 34 34 34 33 31 30 31 34 37 39 40 38 36 35 33 30 29 28 26
22 24 25 26 28 28 29 28 28 28 28 26 24 22 21 20 19 17 16 16 15 15 15 15 16 16 17 18 19 20 20 21 21 23 24 24 22 21 19 18 16 15 15 15 13 11 12 13 13 13 13 14 15 16 18 20 23 25 26 27 28 29 30 30 31 33 35 35 35 35 33 32 32 34 36 37 39 39 38 36 34 32 31 29 28
21 23 25 27 27 28 28 28 28 28 27 28 27 27 27 26 25 23 21 20 20 20 19 18 19 19 19 20 21 21 21 21 20 21 22 23 23 22 21 20 19 16 14 14 13 11 10 11 12 12 12 12 13 14 16 18 20 23 26 28 28 28 29 30 31 32 34 35 36 36 34 31 32 33 34 35 38 40 41 39 36 34 33 31 29
18 21 24 25 26 27 27 26 26 26 25 26 26 27 27 27 27 26 25 25 25 25 24 22 22 20 20 21 22 22 22 23 23 23 22 22 23 23 22 21 21 19 16 14 12 10 10 10 11 11 11 11 12 13 14 16 18 21 24 26 27 27 28 29 30 30 31 33 35 35 32 30 32 33 34 36 39 41 41 40 37 36 35 32 29
17 20 22 24 24 24 24 23 23 22 22 23 24 26 27 27 27 27 27 27 28 29 28 27 26 24 23 23 22 23 23 25 27 27 26 24 23 23 22 20 20 19 18 16 12 9 8 9 9 11 11 11 11 12 13 15 17 19 21 21 23 24 25 27 29 29 29 31 32 33 32 32 33 36 37 39 41 42 40 38 37 36 35 32 29
17 19 21 22 21 20 20 20 20 20 20 21 22 24 25 27 28 29 29 28 28 29 30 30 30 29 28 27 26 25 25 26 27 27 27 26 24 22 20 19 18 16 16 16 14 10 9 8 8 9 10 10 10 11 13 15 17 19 20 20 20 21 22 24 25 27 28 30 32 34 35 35 35 37 39 39 40 40 40 40 39 37 34 33 31
18 19 20 20 19 19 19 20 20 20 19 19 21 22 24 26 28 29 29 28 28 28 29 30 31 31 31 30 30 29 29 29 28 26 26 26 25 22 19 17 16 15 15 15 15 13 11 10 10 9 9 10 10 11 12 15 17 18 20 20 20 20 21 22 23 24 27 30 33 36 38 38 37 37 38 38 40 41 42 43 41 37 35 36 35
18 19 19 19 19 20 22 24 26 25 22 19 20 21 23 25 28 29 29 28 28 28 28 29 31 32 32 32 32 31 31 31 30 28 26 26 25 24 20 17 15 14 13 13 13 13 13 12 12 11 10 10 12 12 13 14 16 18 20 21 22 22 22 23 23 23 25 27 31 35 38 39 38 37 37 39 41 42 43 44 41 37 35 37 37
18 18 18 18 20 23 25 28 31 31 29 25 23 23 25 27 28 28 28 28 29 30 30 30 31 31 32 32 32 33 32 32 32 31 29 26 25 24 22 19 16 14 12 12 11 12 13 14 14 13 11 11 13 14 14 15 15 16 18 20 21 22 23 24 24 24 24 25 28 32 35 37 39 38 38 39 41 43 45 44 41 39 39 39 37
20 18 17 19 22 26 28 30 31 33 32 31 29 28 29 29 29 28 27 28 29 31 32 32 31 31 31 31 32 33 33 34 33 33 32 30 26 24 23 21 19 17 15 13 12 12 12 14 15 15 13 12 13 14 15 15 16 15 15 17 19 21 24 25 25 24 24 25 27 29 31 35 38 38 37 39 42 44 45 45 44 43 42 40 35
21 19 19 21 24 28 30 31 32 33 33 33 33 33 33 32 31 29 28 28 28 30 32 32 31 30 29 30 31 32 33 34 34 34 34 33 29 25 24 23 22 20 18 17 15 14 14 14 14 16 15 13 13 14 15 15 16 16 16 16 18 20 23 24 24 24 25 25 27 28 29 33 37 39 38 38 40 42 42 44 45 44 43 40 34
22 22 23 24 25 27 29 30 31 32 33 34 35 35 35 35 34 32 29 29 29 30 32 33 32 30 28 28 30 31 31 33 35 35 35 35 33 29 26 24 24 24 23 21 19 18 17 16 15 16 16 14 13 14 15 16 17 17 17 17 18 19 21 23 23 24 24 25 27 28 27 29 34 39 39 38 38 40 43 44 42 40 41 39 34
23 24 25 26 26 27 28 29 30 31 32 34 35 36 36 36 36 35 33 32 31 32 33 33 33 31 28 27 27 29 30 31 33 35 36 36 36 34 31 28 26 25 25 24 23 22 20 19 18 17 16 16 14 14 16 17 17 17 18 18 18 18 20 22 23 23 24 24 26 27 26 27 30 35 38 39 38 38 42 44 41 37 39 40 37
22 23 24 25 26 26 28 29 30 30 32 33 34 35 35 36 36 36 36 35 34 34 35 34 34 33 30 27 24 25 27 29 30 33 35 37 38 38 37 34 31 29 27 26 25 24 24 23 21 19 17 17 16 14 15 16 16 17 19 20 20 19 20 21 23 24 24 24 25 26 26 26 27 30 35 38 37 36 38 42 42 40 39 39 38
21 22 22 23 24 26 27 28 29 29 30 31 32 32 33 34 35 36 37 36 35 35 36 37 37 36 33 28 23 22 24 26 28 31 33 35 37 38 38 38 36 34 31 29 27 25 25 26 25 24 22 19 17 16 15 15 16 17 19 21 22 21 21 21 21 23 24 26 28 29 28 28 28 31 34 35 35 35 35 38 42 42 41 40 39
20 21 20 20 22 25 27 27 28 28 28 29 30 31 32 33 34 35 36 36 36 36 37 38 39 38 36 32 25 20 22 24 26 28 31 33 34 36 37 39 38 36 34 32 31 29 27 28 28 29 28 24 20 17 16 14 15 17 18 19 21 23 22 21 20 21 23 26 29 29 29 28 29 31 33 32 33 35 34 34 38 40 42 42 41
19 20 20 18 19 22 25 25 25 26 26 27 28 30 31 32 33 34 36 37 36 37 38 40 41 40 38 35 29 21 20 22 24 26 29 31 32 33 36 37 38 37 35 34 33 32 31 31 31 31 32 31 27 22 19 16 14 16 17 18 21 23 22 20 20 21 23 24 25 27 28 27 28 30 30 28 30 34 34 34 36 37 39 41 41
17 19 19 17 16 18 21 23 23 23 24 25 27 29 30 31 32 34 35 37 37 37 38 40 42 42 40 38 34 26 19 20 22 24 27 29 29 31 33 35 36 37 37 36 35 34 32 31 31 31 32 32 31 27 24 20 16 15 16 18 21 22 21 20 20 20 22 23 22 24 27 27 27 29 28 28 31 34 34 35 37 37 36 36 36
14 16 17 16 13 14 17 20 20 21 22 23 25 28 29 30 31 33 35 37 37 37 39 40 42 43 41 40 39 32 24 20 20 23 26 26 26 28 30 32 34 36 37 37 35 34 32 30 28 27 28 29 30 29 26 23 19 15 14 15 18 20 19 19 18 18 20 22 21 22 25 27 28 28 28 29 31 32 33 33 33 34 36 37 36
12 13 14 15 13 12 13 17 18 18 20 21 23 25 27 28 30 31 34 36 36 36 39 41 43 45 43 41 41 38 30 24 21 21 24 25 25 26 28 31 33 35 35 34 34 32 31 29 26 24 23 24 26 26 25 24 22 18 14 11 13 15 14 14 16 17 19 22 21 20 22 25 27 27 28 29 29 27 28 30 30 33 36 38 39
10 11 11 12 13 12 12 14 16 17 18 19 21 23 25 26 28 30 33 35 36 36 38 40 42 44 44 41 41 40 34 28 23 22 24 25 25 25 27 29 32 34 34 33 31 30 29 27 25 23 21 21 22 22 23 23 22 19 14 7 8 13 14 14 16 18 19 21 21 21 20 22 24 25 26 27 25 22 24 29 32 33 35 35 35
8 8 9 10 11 10 10 12 14 16 17 18 20 21 23 24 26 29 32 34 35 35 37 39 41 43 43 41 41 40 37 30 25 24 26 27 25 24 25 29 31 33 34 33 30 29 28 26 25 24 22 21 20 20 21 21 19 17 13 6 3 9 14 17 17 18 18 18 18 18 17 18 20 22 23 23 21 19 18 21 24 26 27 29 29
8 8 9 10 10 9 9 10 12 14 16 17 18 19 21 22 24 27 30 32 33 34 35 37 39 42 42 39 39 41 39 32 27 27 28 28 25 24 24 28 31 34 35 35 31 28 28 26 25 25 24 22 20 19 19 19 19 19 16 13 10 9 8 11 14 16 17 17 15 14 13 13 14 15 16 16 15 14 14 15 17 19 21 24 25
7 7 8 9 9 9 8 8 10 12 14 15 17 18 18 20 22 25 28 30 31 31 33 35 37 39 40 38 38 41 41 34 28 27 27 26 24 23 23 26 31 35 37 35 31 28 27 26 27 28 27 26 26 25 23 21 19 19 18 16 15 13 10 10 11 13 14 15 16 16 14 13 13 13 13 13 13 13 12 12 14 18 20 22 23
5 5 5 6 8 9 7 7 9 12 13 14 15 17 18 19 21 23 25 28 29 29 30 32 34 37 37 36 37 40 41 36 27 23 24 23 19 19 22 25 29 33 35 33 29 27 28 29 30 31 32 31 31 30 29 26 22 19 18 16 15 13 12 11 11 13 14 13 14 15 15 15 16 16 16 17 17 16 15 14 17 19 20 21 23
6 4 3 3 6 8 8 8 10 11 12 13 14 16 17 18 19 20 23 25 27 27 28 29 32 35 35 33 34 36 39 37 28 20 21 22 18 18 21 24 25 30 33 32 30 31 32 32 32 32 32 32 32 31 31 29 26 23 20 17 15 15 17 18 18 17 15 14 15 15 15 15 16 17 19 21 21 20 18 17 19 21 21 22 25
7 7 4 3 5 8 9 9 11 11 12 13 13 15 16 17 17 19 21 23 25 25 26 27 29 32 33 31 31 32 34 36 33 23 18 19 19 19 20 21 25 29 31 30 31 34 35 34 33 32 31 31 30 30 29 29 28 27 24 21 18 16 16 18 19 18 18 17 17 17 17 17 18 19 20 20 21 21 20 20 21 23 25 27 29
5 9 7 4 4 7 8 8 11 12 13 14 14 14 15 16 17 18 19 22 23 23 24 25 27 30 31 31 31 32 33 35 35 28 19 17 18 19 19 23 27 28 27 28 32 34 35 34 34 33 32 31 29 29 29 28 28 28 27 26 24 21 18 15 12 12 15 18 20 21 23 23 22 22 22 21 21 21 20 20 21 24 27 28 29
4 9 7 4 4 7 8 8 11 13 14 15 14 14 15 16 17 18 18 20 22 22 23 25 26 27 29 30 30 32 33 33 34 32 24 18 17 18 19 23 25 23 22 27 31 32 33 34 33 32 32 31 29 28 28 27 27 26 26 26 26 25 22 18 14 10 11 13 15 17 19 20 20 20 19 17 17 17 17 17 17 17 19 20 22
5 9 6 6 6 7 8 8 10 11 13 14 15 15 14 15 16 17 17 19 21 22 23 24 25 25 27 29 29 31 32 32 33 33 28 21 17 16 17 20 21 19 22 27 28 28 30 32 31 31 30 29 28 27 26 26 26 26 26 25 25 24 24 22 20 18 15 13 12 11 11 11 12 12 12 13 14 15 15 15 15 15 16 18 20
6 8 6 7 6 6 6 6 7 8 11 14 15 14 13 13 15 16 16 17 20 22 22 23 24 24 25 27 28 30 31 32 31 31 30 26 20 17 19 22 22 21 23 25 25 24 26 28 28 29 29 28 27 25 23 24 25 25 25 25 25 24 24 24 23 22 20 19 18 16 14 12 11 11 13 15 17 18 18 17 16 16 17 18 20
6 7 8 6 4 4 5 4 4 6 9 13 15 13 12 12 14 15 15 16 18 20 21 21 22 22 23 25 26 27 29 31 30 29 30 29 25 21 20 22 22 21 21 22 21 21 23 25 26 27 27 27 27 25 22 22 23 23 24 24 24 24 24 24 24 23 22 22 21 19 18 17 15 15 16 17 18 19 19 18 18 17 17 18 18
5 7 6 4 4 4 4 3 2 4 7 11 13 13 12 12 13 14 14 14 16 19 19 19 20 21 22 24 25 25 27 29 29 28 29 29 28 24 21 19 19 19 20 20 19 20 22 23 24 25 25 25 26 25 23 21 21 21 22 23 24 24 24 23 23 22 22 22 21 20 19 19 17 16 16 17 18 18 18 17 16 16 15 14 14
3 4 3 3 4 5 4 2 1 3 6 8 11 12 13 13 12 12 13 13 15 18 19 18 19 20 22 23 24 24 24 26 28 28 29 29 29 27 23 18 17 18 18 18 18 19 20 20 21 22 23 23 23 23 23 22 21 20 21 22 22 22 23 23 23 22 22 22 21 20 19 19 18 17 17 17 18 17 16 15 15 14 12 11 11
2 3 3 3 3 5 6 5 4 6 7 7 8 11 12 12 11 11 12 12 14 16 18 18 18 19 21 22 23 22 23 25 27 28 28 28 28 29 26 21 17 16 16 16 17 18 19 19 19 19 19 20 20 19 20 21 21 20 19 19 19 19 19 21 21 22 22 22 20 19 18 17 17 16 17 17 17 15 14 14 15 15 14 12 11
4 5 4 3 3 4 5 6 6 7 7 7 7 9 11 10 10 10 11 11 12 15 17 17 18 19 20 21 22 22 22 23 24 26 27 26 26 27 27 24 20 16 15 14 15 16 18 18 18 17 17 17 17 17 17 18 20 19 18 18 18 18 18 18 18 18 19 20 20 19 17 16 15 14 13 13 13 12 11 12 14 15 14 13 12
7 6 4 3 2 2 3 5 6 7 7 7 7 7 9 9 8 9 10 10 10 13 15 16 16 18 19 20 20 21 21 22 22 23 24 25 25 25 25 24 22 20 17 15 14 15 16 16 17 17 16 16 16 16 16 17 19 20 18 17 17 18 18 17 16 16 16 17 18 17 16 16 15 13 12 11 10 9 9 10 11 13 13 12 12
9 6 4 2 1 1 1 2 4 5 6 5 4 5 7 7 7 8 10 9 9 11 13 14 15 16 18 18 19 19 20 21 20 21 22 23 23 23 22 21 21 21 21 19 18 16 15 15 16 16 16 14 14 16 17 17 19 20 19 17 16 16 16 16 16 15 13 13 14 14 14 13 12 12 11 10 9 9 9 9 10 11 12 11 11
9 6 4 2 1 1 1 0 2 3 4 4 4 4 5 5 5 8 10 9 8 10 11 12 13 14 16 17 18 18 19 19 19 20 21 22 22 22 21 20 19 19 20 21 21 20 19 16 14 14 14 13 12 13 15 17 18 19 19 18 17 16 15 15 15 14 13 11 11 11 12 12 11 10 10 10 9 9 9 9 9 9 9 9 10
8 6 4 3 0 1 2 1 1 2 2 4 4 4 5 4 4 6 7 7 7 9 10 10 11 12 14 15 17 17 18 18 18 19 20 19 20 21 21 19 18 17 18 19 19 21 22 20 15 12 11 12 12 12 12 13 14 15 16 17 17 16 16 15 14 14 13 11 8 8 9 10 10 9 8 8 8 7 6 7 8 8 8 8 8
9 7 5 4 2 2 3 3 3 1 2 4 4 4 5 4 4 5 5 6 7 9 9 9 10 11 12 14 15 16 17 17 17 18 19 18 18 19 20 19 17 16 16 17 17 17 20 21 19 15 11 11 13 14 13 12 12 12 13 14 15 15 15 15 13 12 12 10 7 6 6 7 7 7 6 6 6 6 5 3 3 4 5 6 7
10 8 6 4 3 3 3 3 2 2 2 4 4 4 4 4 5 5 5 6 8 9 8 9 11 12 12 12 13 14 15 15 15 17 18 17 16 17 19 19 17 15 15 16 16 15 16 17 19 19 16 14 14 15 15 15 15 14 14 13 13 13 14 14 12 10 9 8 6 5 5 5 4 4 3 4 5 6 4 2 1 1 2 4 6
12 10 7 4 4 4 5 4 3 3 4 4 5 5 5 6 6 7 6 7 10 10 9 9 10 11 11 11 12 13 13 13 14 16 17 16 16 16 17 18 17 15 14 15 15 15 14 14 15 16 17 16 16 16 16 17 17 18 18 16 13 12 12 12 10 8 7 6 5 4 5 4 4 3 2 3 4 4 2 2 2 2 2 4 5
13 10 6 4 3 5 6 5 5 5 4 5 5 6 8 8 8 9 9 9 10 10 9 9 9 8 10 12 12 12 12 13 14 16 17 16 16 16 16 17 16 16 15 15 15 15 15 14 13 14 15 15 16 16 16 17 19 20 20 18 13 9 9 9 7 5 5 5 5 5 6 6 6 6 5 4 4 2 1 1 3 4 3 2 4
13 11 8 6 5 6 7 6 6 6 6 6 6 7 9 10 10 10 10 10 11 10 10 10 9 9 10 12 13 12 12 12 14 15 15 15 16 16 16 16 16 15 14 15 15 15 15 15 14 14 14 14 15 15 15 17 20 21 20 16 12 8 7 6 5 4 5 6 7 8 9 9 9 9 8 7 6 4 4 3 2 1 2 2 2
14 12 10 8 7 7 8 8 7 7 7 7 8 9 10 10 10 10 10 10 10 10 11 12 11 10 10 12 13 12 11 11 12 13 14 14 14 15 15 16 16 14 14 14 14 15 16 16 15 14 14 13 14 15 15 16 19 21 19 15 11 8 7 6 5 5 6 7 8 10 11 11 10 9 7 6 5 4 5 5 5 4 1 0 2
15 14 13 11 9 9 10 9 8 8 8 8 9 10 10 9 9 9 9 9 10 11 11 11 11 11 11 12 14 13 12 11 11 12 13 14 14 14 15 15 15 14 14 14 14 15 16 16 15 14 14 14 14 14 14 15 18 20 18 14 10 8 7 5 5 5 7 8 9 10 10 10 10 7 4 4 3 3 6 7 6 6 4 2 3
Wind_Direction
88 87 82 73 64 56 46 39 38 47 67 69 59 51 45 40 35 26 13 6 353 333 324 317 314 320 323 320 318 318 316 315 317 319 320 319 321 323 321 319 313 308 305 301 297 292 284 278 270 261 254 254 254 252 249 244 242 243 243 245 246 240 235 236 239 241 242 243 246 244 234 225 219 217 217 215 212 212 216 221 221 222 226 226 219
85 84 81 70 61 54 45 38 40 53 72 75 64 55 50 48 45 38 28 22 9 349 342 336 329 328 325 319 318 316 315 315 316 318 321 321 321 321 321 321 319 316 311 307 301 292 286 281 274 266 257 252 249 248 248 246 243 244 244 244 244 242 239 240 240 240 243 243 243 241 234 226 220 217 217 217 215 214 215 217 217 219 224 226 221
83 82 75 65 58 52 44 43 48 57 68 73 66 58 52 49 47 46 42 32 19 8 360 353 347 341 331 323 321 319 318 318 319 321 324 326 324 321 319 319 320 320 314 306 300 290 280 276 274 271 265 256 246 242 245 247 244 245 246 245 245 245 244 243 242 241 243 243 241 238 232 226 222 219 218 219 218 216 215 216 215 216 221 224 223
74 70 65 61 58 55 52 51 51 51 55 62 64 58 51 45 42 42 41 36 27 19 11 2 354 346 340 336 333 330 326 322 323 324 326 328 327 323 320 315 314 318 316 307 301 296 287 279 277 275 269 262 253 246 246 247 246 246 247 246 246 247 247 247 246 244 243 242 239 236 231 229 225 222 219 219 220 218 216 217 215 214 218 222 222
67 64 61 59 58 57 55 54 52 50 50 53 56 53 47 40 35 31 30 31 29 24 20 13 6 0 357 355 351 345 338 330 325 324 325 326 326 325 325 320 312 309 310 307 303 301 297 289 283 277 271 265 259 253 248 247 248 248 247 245 244 245 247 248 247 246 244 242 239 234 232 232 228 223 220 219 219 218 216 217 215 214 218 222 221
65 61 58 58 58 57 56 54 54 54 52 52 51 48 44 37 31 26 20 18 19 19 19 17 16 15 12 8 4 358 350 341 331 325 324 325 324 326 328 328 321 310 304 303 301 299 299 294 287 279 275 270 265 262 259 255 255 251 248 246 245 245 247 247 246 246 245 243 239 234 230 230 227 221 218 218 219 217 213 213 213 214 217 220 218
68 64 60 59 59 57 56 55 54 53 52 51 49 46 44 39 35 31 23 17 17 17 16 15 16 17 15 12 9 5 360 352 342 332 327 327 329 329 329 329 327 321 311 305 298 295 299 299 294 286 280 274 269 267 265 263 262 256 249 248 249 248 248 248 247 245 243 241 239 235 230 227 225 222 218 218 220 218 213 209 208 211 215 217 216
73 71 66 64 62 60 58 56 55 54 51 49 46 42 40 37 36 34 29 26 24 24 23 22 21 20 16 14 11 7 4 1 357 349 340 336 335 334 333 330 328 324 319 312 298 288 294 302 304 299 293 288 282 276 270 266 264 261 253 248 248 248 247 248 248 246 243 239 236 233 229 224 220 220 218 215 216 216 214 210 208 210 213 214 214
80 78 74 70 67 64 61 58 55 52 50 48 45 40 36 33 31 31 31 32 32 31 29 28 27 26 22 18 14 10 8 8 8 2 354 347 341 337 336 332 328 324 320 316 305 288 285 299 311 310 303 300 296 290 284 274 267 264 258 250 247 246 243 244 246 244 243 240 234 231 231 227 220 216 215 215 215 216 213 210 210 212 213 213 213
86 81 76 71 67 63 59 53 49 47 47 48 46 41 36 32 30 29 31 36 37 34 30 28 27 26 24 23 19 16 15 14 12 7 2 357 350 344 338 331 326 322 318 316 313 306 292 286 295 299 297 299 297 289 285 280 273 267 261 254 248 244 241 242 246 243 241 241 239 234 233 232 227 220 219 219 218 215 212 211 211 211 212 214 214
87 79 74 70 64 57 53 50 49 50 50 49 47 43 38 33 30 29 32 37 37 34 30 27 25 24 23 22 21 21 21 18 13 9 6 3 358 352 344 334 327 321 316 314 312 311 300 284 277 277 280 289 291 284 279 277 275 271 263 254 249 247 244 243 245 245 242 243 243 239 234 232 231 226 223 221 219 216 214 214 212 209 210 215 215
85 78 72 65 57 55 58 59 57 56 55 51 47 44 39 34 31 30 32 34 34 31 28 25 24 23 22 21 21 21 21 19 15 12 9 7 4 1 353 342 332 325 319 314 307 303 298 287 278 273 270 274 279 279 276 274 272 270 264 255 249 250 250 247 245 244 242 242 243 240 236 233 230 227 224 222 220 218 216 216 214 210 212 217 218
76 73 68 60 56 59 63 63 57 54 54 53 50 46 41 36 33 32 32 33 31 29 27 26 25 23 22 21 21 20 20 19 17 15 13 10 8 7 4 356 347 339 331 320 307 298 292 285 279 275 267 264 270 275 276 274 270 266 262 258 251 249 251 250 246 243 243 242 238 237 237 235 231 228 226 224 221 218 216 216 216 215 217 219 219
66 68 66 62 61 63 63 59 54 51 51 52 51 48 44 40 38 36 35 33 30 27 26 25 25 23 22 21 20 19 20 18 17 16 14 12 10 10 11 9 4 355 347 336 323 311 300 291 287 284 278 268 266 270 275 275 270 262 259 258 255 250 248 246 242 238 238 238 236 235 235 234 231 229 227 225 223 220 219 218 219 220 221 220 220
64 67 68 66 65 63 60 56 53 50 48 48 47 45 43 42 41 39 37 34 32 29 27 26 25 23 22 20 19 19 19 19 17 16 14 13 13 12 12 14 14 9 1 351 342 331 320 310 300 296 294 285 272 269 271 272 270 266 262 259 259 255 248 243 238 234 234 236 238 239 237 233 232 230 228 227 226 226 228 227 224 222 221 219 218
64 67 67 67 66 62 57 54 52 48 45 43 42 41 40 40 41 40 39 37 35 33 31 29 27 24 21 19 18 17 18 19 17 17 16 14 13 14 13 14 16 17 13 6 359 350 339 330 318 308 304 297 283 271 268 268 268 268 265 261 260 256 245 239 238 238 238 236 237 239 239 237 235 232 229 227 227 226 228 227 223 219 218 216 216
65 69 67 65 64 61 56 53 50 47 43 41 40 39 38 37 37 37 36 36 36 34 32 30 28 25 21 16 15 16 17 18 17 17 17 16 14 13 13 12 13 16 17 15 12 7 1 352 340 325 315 308 296 277 266 265 265 264 265 262 260 254 244 239 241 244 244 241 238 236 236 237 238 235 230 228 228 227 225 222 218 214 216 216 216
66 70 66 62 60 58 55 52 48 45 42 40 38 37 36 35 34 34 33 34 34 33 30 28 26 26 23 18 15 14 16 17 16 16 16 16 16 14 12 11 11 10 11 13 14 14 12 9 0 348 335 324 313 294 274 267 263 260 260 261 260 256 246 242 244 245 243 243 242 239 237 236 236 236 232 229 229 230 228 225 220 215 215 217 217
67 71 67 62 59 56 53 50 46 43 40 38 37 36 35 34 33 32 31 32 33 32 29 26 25 25 25 22 17 15 17 17 15 14 14 14 14 14 12 11 11 9 7 6 8 10 12 12 10 5 356 344 330 314 295 278 265 257 257 258 259 257 252 249 249 247 245 243 242 241 239 235 235 237 235 231 228 229 230 229 225 219 217 220 220
67 70 67 63 59 55 51 47 43 41 38 36 35 35 34 32 31 31 30 30 31 31 29 26 25 26 26 26 22 18 18 18 15 13 12 11 12 13 13 13 12 11 9 6 4 5 7 8 8 8 4 358 346 332 318 300 275 260 256 254 253 253 255 256 254 252 250 247 243 242 239 234 234 236 233 228 227 227 226 225 224 222 220 221 223
65 67 65 61 56 53 50 45 41 39 36 33 33 33 31 30 29 29 28 28 29 30 28 26 25 25 26 27 26 22 19 19 17 14 12 11 10 11 13 14 14 12 12 10 7 6 4 4 4 4 3 0 355 346 335 321 295 270 260 252 247 248 252 255 256 255 253 248 243 241 236 231 232 233 228 223 224 225 224 221 220 220 221 222 224
65 64 62 59 54 51 48 43 39 38 35 32 31 32 30 27 26 26 25 25 27 28 27 25 23 24 24 25 26 26 22 18 17 17 15 13 11 11 13 15 14 13 12 11 9 7 4 2 360 359 358 358 356 353 345 335 317 289 267 253 245 243 244 249 253 252 249 245 239 234 229 226 227 228 225 221 219 218 219 219 215 213 216 221 224
73 68 64 61 57 51 46 43 40 37 34 30 28 29 27 23 23 23 23 23 25 26 25 23 22 22 22 23 23 24 24 22 19 19 18 15 12 11 12 15 15 14 13 11 9 6 4 2 359 355 354 356 357 356 352 346 338 319 293 271 253 243 241 246 248 244 241 239 232 224 220 218 220 221 221 223 219 212 212 215 213 210 212 214 216
83 77 67 61 60 58 49 43 40 38 34 27 24 25 24 21 20 21 21 21 23 24 23 22 21 21 21 21 20 20 22 25 24 23 21 18 14 11 12 16 17 15 13 12 9 7 6 4 1 355 352 356 359 0 359 357 354 348 335 303 260 237 232 238 236 229 228 228 224 217 211 211 215 218 220 224 224 217 213 212 211 212 214 213 214
90 84 71 62 59 59 54 45 41 39 33 24 20 22 22 18 18 20 20 20 21 22 22 21 20 20 20 20 18 16 18 21 24 27 24 19 16 13 15 19 20 16 13 11 9 9 8 7 6 3 359 357 358 3 10 11 8 3 356 323 226 197 190 201 216 218 215 214 215 216 212 209 211 214 216 218 219 218 214 211 209 211 213 213 213
100 85 72 66 60 55 55 50 42 38 32 24 20 21 20 17 16 18 20 20 20 21 21 19 19 18 18 18 17 15 15 17 24 29 23 16 14 12 14 19 20 16 13 11 9 10 11 11 13 16 14 10 6 8 16 21 21 20 19 24 130 155 159 169 185 198 201 200 204 209 209 204 202 204 207 210 211 210 210 209 207 209 212 213 210
100 90 73 65 56 48 50 48 41 36 32 26 21 20 20 17 15 18 19 19 20 20 19 18 17 17 17 17 17 17 16 17 24 27 19 11 9 9 12 16 18 16 13 10 9 11 12 15 20 23 25 27 25 23 24 26 30 34 37 46 61 76 97 121 141 158 167 172 179 188 194 193 187 184 187 193 196 195 196 198 198 198 202 209 209
91 87 75 63 52 43 41 41 38 33 28 22 19 20 20 17 16 18 19 18 19 19 17 17 17 17 17 17 18 19 18 18 21 20 14 7 4 7 12 15 16 17 14 10 10 12 15 20 25 27 29 31 33 33 33 33 36 42 45 50 60 68 71 78 93 105 116 132 145 152 159 164 161 159 160 162 161 160 165 178 183 180 183 191 189
94 94 84 67 55 45 37 33 31 24 18 16 17 17 16 16 17 19 18 18 19 18 16 16 17 17 18 19 20 21 20 18 17 15 11 6 2 9 15 13 13 17 16 12 12 16 18 23 28 29 30 31 32 34 35 34 37 43 49 54 59 68 77 81 81 81 84 97 113 121 128 135 137 140 144 144 142 144 152 162 165 164 171 178 171
86 91 86 73 64 53 43 36 29 20 15 15 16 15 14 16 18 19 18 18 19 18 16 16 16 16 18 22 24 23 21 18 17 14 10 7 7 13 14 12 14 18 18 16 19 22 22 26 30 31 32 34 35 36 37 37 37 39 44 53 61 71 80 86 89 93 96 99 103 107 114 120 121 121 124 125 126 131 136 144 150 153 159 161 152
67 57 51 73 72 55 45 38 31 26 22 19 16 14 15 18 20 19 18 18 19 19 18 17 16 15 18 22 25 24 21 18 17 15 12 9 8 8 10 17 22 22 19 21 25 27 27 29 32 34 35 37 39 42 42 43 43 42 42 45 52 63 76 84 91 99 105 108 111 113 114 117 117 116 116 117 119 121 124 127 132 134 134 134 133
58 44 49 88 83 54 46 36 29 29 28 25 20 16 17 22 23 20 17 18 19 20 19 17 15 14 18 22 24 23 21 19 17 17 18 15 10 10 18 25 24 19 20 28 31 31 32 34 35 36 39 40 43 46 48 48 48 49 49 49 49 50 54 59 71 90 100 103 106 107 107 109 113 114 115 116 115 116 118 122 126 127 124 123 123
45 34 52 109 94 58 51 37 26 28 31 29 26 21 20 24 25 21 18 18 20 21 20 17 14 13 17 22 24 23 22 20 19 21 24 22 18 16 18 17 13 15 27 35 34 34 36 36 36 38 41 43 46 49 51 52 53 54 55 55 56 56 55 55 57 69 83 88 93 96 96 98 102 105 107 110 111 113 117 121 127 133 133 129 127
29 27 62 119 97 63 52 35 24 26 29 29 27 23 22 24 25 23 19 18 20 22 21 17 15 14 17 21 24 25 23 21 20 23 25 26 21 14 10 11 16 29 40 38 33 35 37 36 37 38 39 41 45 49 51 52 53 55 57 57 59 60 60 61 62 64 67 69 70 72 79 89 98 100 103 109 113 116 118 121 127 135 140 141 140
26 36 84 116 98 60 43 31 24 22 25 27 25 21 20 25 28 25 20 18 19 22 22 19 16 14 15 19 22 24 24 22 21 22 25 27 24 20 21 25 30 40 45 37 31 31 33 33 35 36 35 37 39 43 48 51 51 52 54 55 57 58 59 60 62 63 65 68 70 70 74 87 104 114 118 120 119 117 116 117 119 123 128 133 137
53 73 97 107 81 29 8 12 19 16 18 24 23 18 17 23 28 25 21 17 17 20 22 21 17 14 15 17 19 22 23 22 21 22 24 26 25 26 31 31 29 35 42 38 34 33 30 29 31 32 32 33 34 35 41 48 49 50 52 53 53 54 55 58 60 62 64 66 69 72 75 80 88 98 104 107 109 111 113 114 114 116 119 122 126
88 102 101 82 52 18 350 337 348 359 10 20 22 19 19 22 24 23 21 18 16 18 20 21 18 18 17 16 16 19 21 21 21 22 24 25 26 28 32 32 29 32 36 35 36 37 32 29 30 30 27 28 31 33 38 46 51 53 53 53 53 53 55 57 59 61 63 64 66 69 72 73 77 82 85 88 92 98 105 110 113 115 116 117 120
127 130 108 67 50 34 22 28 44 11 8 16 20 21 24 27 25 20 18 19 18 18 19 18 17 19 20 17 14 15 18 20 22 23 23 23 24 27 29 30 29 31 31 28 30 33 31 29 32 32 26 25 31 37 41 46 50 52 49 48 50 53 58 61 61 62 63 63 63 64 64 67 72 76 78 78 78 79 86 96 103 107 108 110 115
156 140 115 92 59 38 38 55 52 26 14 9 8 13 23 30 28 19 13 15 18 18 19 18 16 17 20 19 15 14 15 17 21 22 22 22 23 25 27 29 29 31 31 27 23 21 19 21 27 32 31 27 30 38 44 44 44 47 47 46 46 50 55 58 60 62 63 62 61 61 61 63 67 72 75 76 74 72 76 83 88 91 91 92 99
165 139 118 103 68 36 41 53 44 24 10 356 351 2 17 26 27 19 14 14 15 15 18 19 16 15 18 19 17 16 15 16 18 20 21 21 22 23 25 29 31 30 29 25 19 14 12 12 16 25 31 31 30 33 37 37 38 43 46 47 48 50 50 51 52 56 59 59 59 60 62 62 63 65 69 71 72 75 79 84 88 89 86 85 92
162 147 131 115 83 29 32 42 31 9 353 342 341 354 7 15 21 21 18 16 13 12 15 18 15 12 14 16 18 18 17 16 16 18 19 21 22 22 23 29 32 32 30 27 20 14 11 9 7 10 17 26 31 32 31 31 33 37 42 46 48 49 47 46 46 49 53 55 55 55 57 58 58 59 60 60 65 74 82 88 94 97 93 92 99
165 153 145 142 125 315 322 19 14 357 349 351 358 2 3 6 16 23 23 22 15 9 12 16 14 11 11 12 16 19 19 16 15 14 16 19 22 21 23 28 33 35 35 34 30 25 19 13 8 5 5 14 26 32 32 30 32 34 35 36 37 36 35 37 40 43 47 51 51 49 50 52 52 51 49 48 52 66 78 86 97 105 105 104 109
175 166 166 167 130 306 249 258 1 347 352 17 46 39 18 8 11 17 22 26 21 13 13 14 12 9 9 10 13 16 17 16 13 11 13 18 21 21 23 26 30 33 35 36 36 36 33 27 21 16 13 17 27 32 31 31 33 33 31 28 25 23 23 25 31 36 39 43 48 50 51 55 58 55 48 43 45 56 69 76 87 103 113 114 116
182 180 184 184 197 253 205 222 277 311 359 23 35 35 29 28 26 22 23 28 24 18 16 14 10 8 7 8 10 12 12 12 11 9 10 16 20 19 20 22 24 27 31 33 35 36 35 34 34 31 25 26 29 29 28 28 28 27 26 23 20 18 16 14 16 20 21 24 35 49 50 51 54 55 51 48 48 53 63 72 80 92 110 124 130
192 194 193 194 222 232 221 242 266 284 13 13 4 6 18 30 32 22 15 15 15 15 15 14 11 7 4 4 6 7 7 8 10 8 9 14 17 15 16 19 20 21 24 26 29 31 32 33 34 34 32 30 28 24 21 19 17 14 14 14 13 13 12 10 8 9 8 8 15 29 36 37 40 44 48 48 42 32 31 51 77 90 106 125 138
196 198 198 208 243 244 227 245 280 297 334 342 345 353 3 8 7 360 353 356 1 2 5 8 6 5 5 5 3 2 2 6 9 7 6 9 11 10 11 14 16 17 18 19 20 24 28 31 33 34 34 34 33 30 27 23 17 10 3 359 356 356 357 358 360 1 1 1 2 7 13 21 29 32 30 21 10 1 1 21 99 129 142 145 145
202 207 212 239 266 235 215 234 277 290 299 316 331 337 335 336 341 339 334 339 347 349 351 357 1 4 7 7 2 358 1 5 6 4 3 4 5 4 5 7 10 12 13 12 12 15 19 23 26 29 30 28 27 28 27 23 16 9 2 355 347 340 342 346 352 358 1 0 357 353 352 354 357 354 349 346 347 349 4 66 92 103 165 185 177
213 219 223 237 230 202 201 226 257 270 287 303 313 325 331 333 333 333 331 333 338 342 346 349 352 358 2 2 360 359 359 358 358 359 1 0 358 357 359 1 3 4 5 5 5 7 9 12 13 15 19 20 19 20 21 17 10 4 0 356 351 344 343 348 354 357 355 352 349 345 342 338 334 330 320 308 305 302 231 130 88 75 84 152 184
221 225 222 223 227 222 223 231 241 257 280 291 295 311 327 330 327 329 332 331 330 335 340 340 338 341 350 354 355 357 357 354 352 355 359 359 357 355 355 356 358 358 358 359 2 4 4 5 3 3 7 12 13 15 17 14 7 1 359 359 1 3 2 2 5 359 347 338 332 330 329 327 325 322 315 301 287 264 227 204 181 94 57 57 160
230 228 219 221 238 245 235 229 236 257 277 287 292 302 312 315 315 319 322 320 318 323 331 335 333 333 338 345 349 351 352 351 350 351 353 355 356 357 356 354 353 353 351 352 358 2 3 2 0 358 360 4 7 11 14 11 3 360 1 6 10 12 10 6 3 357 348 342 335 331 329 328 326 320 306 289 272 242 213 204 207 212 226 17 164
233 229 222 224 236 244 239 235 246 266 279 288 293 295 299 305 310 309 305 304 308 315 322 327 329 327 329 336 343 346 346 345 345 346 347 348 351 354 354 351 349 348 344 343 348 356 359 359 358 356 355 356 359 5 10 6 359 358 4 11 15 15 11 2 354 349 346 344 342 337 333 333 336 329 297 259 245 212 193 194 204 215 229 250 192